User: anonymous   Login
Location: Newark
(51.0000°N, 11.4100°E)
Time: 01:49:42
(UTC+00:00)
Language:

deb Explorer IX - Orbit

View from above orbital plane
View from above orbital plane
View from above satellite
View from above satellite

Ground track
Ground track

The orbit data is extracted from the following two-line orbital elements,

1    85U 61004C   19316.32857999  .00001053  00000-0  25047-3 0  9996
2    85  38.7703  53.0588 0388100 126.3289 237.3936 14.19934197900058
Epoch (UTC): 12 November 2019 07:53:09
Eccentricity: 0.0388100
inclination: 38.7703°
perigee height: 546 km
apogee height: 1105 km
right ascension of ascending node: 53.0588°
argument of perigee: 126.3289°
revolutions per day: 14.19934197
mean anomaly at epoch: 237.3936°
orbit number at epoch: 90005

The dashed part of the orbit path shows where the satellite is in the earth's shadow,  

DLR